Wahiawa, HI

9:18 AM HST on February 25, 2017 (GMT -1000)
Wheeler Army Air Field

Weather History for PHHI - April, 2013

Change the Weather History Date:

Monday, April 8, 2013

  Actual Average Record
Temperature  
Mean Temperature 72 °F -  
Max Temperature 78 °F 75 °F 82 °F (2003)
Min Temperature 66 °F 62 °F 60 °F (1997)
Cooling Degree Days 7    
Growing Degree Days 22 (Base 50)    
Moisture  
Dew Point 61 °F    
Average Humidity 69    
Maximum Humidity 90    
Minimum Humidity 48    
Precipitation  
Precipitation 0.00 in - - ()
Sea Level Pressure  
Sea Level Pressure 30.04 in    
Wind  
Wind Speed 5 mph (ENE)    
Max Wind Speed 14 mph    
Max Gust Speed -    
Visibility 10 miles    
Events Rain    
Averages and records for this station are not official NWS values.
T = Trace of Precipitation, MM = Missing Value Source: NWS Daily Summary

Daily Weather History Graph

Daily Weather History Graph

Search for Another Location

Airport or City:

Trip Planner

Search our weather history database for the weather conditions in past years. The results will help you decide how hot, cold, wet, or windy it might be!

Date:

Astronomy

Apr. 08, 2013 Rise Set
Actual Time 6:18 AM HST 6:49 PM HST
Civil Twilight 5:56 AM HST 7:12 PM HST
Nautical Twilight 5:29 AM HST 7:38 PM HST
Astronomical Twilight 5:03 AM HST 8:05 PM HST
Moon 5:05 AM HST (4/8) 5:40 PM HST (4/8)
Length of Visible Light 13h 16m
Length of Day
12h 30m
Waning Crescent, 2% of the Moon is Illuminated
Apr 8
Waning Crescent
Apr 9
New
Apr 18
First Quarter
Apr 25
Full
May 2
Last Quarter

Hourly Weather History & Observations

Time (HST) Temp. Dew Point Humidity Pressure Visibility Wind Dir Wind Speed Gust Speed Precip Events Conditions
12:55 AM 66.0 °F 63.0 °F 90% 30.09 in 10.0 mi NW 4.6 mph - N/A   Overcast
1:55 AM 67.5 °F 63.0 °F 85% 30.07 in 10.0 mi WNW 3.5 mph - N/A   Overcast
2:55 AM 67.6 °F 63.1 °F 85% 30.05 in 10.0 mi Variable 3.5 mph - N/A   Overcast
3:55 AM 68.2 °F 63.9 °F 86% 30.03 in 10.0 mi Calm Calm - N/A   Overcast
4:55 AM 68.2 °F 62.8 °F 83% 30.03 in 10.0 mi Calm Calm - N/A   Scattered Clouds
5:55 AM 67.8 °F 62.2 °F 82% 30.04 in 10.0 mi Calm Calm - N/A   Overcast
6:55 AM 67.3 °F 62.2 °F 84% 30.06 in 10.0 mi Calm Calm - N/A   Mostly Cloudy
7:55 AM 69.6 °F 64.2 °F 83% 30.08 in 10.0 mi Calm Calm - N/A   Clear
8:55 AM 73.9 °F 62.8 °F 68% 30.09 in 10.0 mi ENE 9.2 mph - N/A   Partly Cloudy
9:55 AM 75.6 °F 62.1 °F 63% 30.09 in 10.0 mi East 9.2 mph - N/A   Clear
10:37 AM 77.0 °F 60.8 °F 57% 30.09 in 10.0 mi SE 6.9 mph - N/A   Light Drizzle
10:46 AM 77.0 °F 60.8 °F 57% 30.09 in 10.0 mi Variable 4.6 mph - N/A   Mostly Cloudy
10:55 AM 76.3 °F 61.2 °F 59% 30.08 in 10.0 mi East 11.5 mph - 0.00 in   Overcast
11:55 AM 77.5 °F 60.4 °F 55% 30.07 in 10.0 mi East 8.1 mph - N/A   Overcast
12:55 PM 78.6 °F 60.8 °F 54% 30.04 in 10.0 mi East 5.8 mph - N/A   Partly Cloudy
1:02 PM 77.0 °F 60.8 °F 57% 30.04 in 10.0 mi East 10.4 mph - N/A   Light Drizzle
1:11 PM 78.8 °F 59.0 °F 51% 30.03 in 10.0 mi East 9.2 mph - N/A   Clear
1:55 PM 78.8 °F 57.4 °F 48% 30.00 in 10.0 mi East 10.4 mph - 0.00 in   Partly Cloudy
2:55 PM 78.1 °F 59.2 °F 52% 29.98 in 10.0 mi East 13.8 mph - N/A   Clear
3:05 PM 77.0 °F 59.0 °F 54% 29.98 in 10.0 mi East 8.1 mph - N/A   Light Drizzle
3:11 PM 78.8 °F 59.0 °F 51% 29.98 in 10.0 mi SE 9.2 mph - N/A   Clear
3:55 PM 77.7 °F 60.3 °F 55% 29.96 in 10.0 mi ENE 9.2 mph - 0.00 in   Clear
5:55 PM 75.6 °F 59.7 °F 58% 29.99 in 10.0 mi ENE 6.9 mph - N/A   Clear
6:55 PM 72.5 °F 61.0 °F 67% 30.01 in 10.0 mi ENE 9.2 mph - N/A   Clear
7:55 PM 69.3 °F 60.3 °F 73% 30.03 in 10.0 mi Calm Calm - N/A   Clear
8:10 PM 68.0 °F 60.8 °F 78% 30.04 in 10.0 mi Calm Calm - N/A Rain Light Rain
8:14 PM 68.0 °F 60.8 °F 78% 30.04 in 10.0 mi Calm Calm - N/A   Clear
8:55 PM 67.6 °F 60.4 °F 78% 30.05 in 10.0 mi West 4.6 mph - 0.00 in   Partly Cloudy
9:55 PM 66.0 °F 60.4 °F 82% 30.07 in 10.0 mi NW 3.5 mph - N/A   Partly Cloudy
10:55 PM 68.7 °F 62.2 °F 80% 30.07 in 10.0 mi North 4.6 mph - N/A   Scattered Clouds
11:55 PM 66.6 °F 62.2 °F 86% 30.06 in 10.0 mi East 6.9 mph - N/A   Scattered Clouds